Showing default

YUNHAI 2-1E, 43913

Orbit data source: Space-Track

YUNHAI 2-1E, 43913 is a payload satellite owned by CASC (CN) in LEO that was launched on Sat, 29 Dec 2018 UTC via a CHANG ZHENG 2D/YZ-3 launch vehicle from the Jiuquan Satellite Launch Center, China (JSC). Payload-class satellites include a variety of spacecraft equipped with specific instruments for various scientific and technological missions. These include communications satellites like Starlink; space stations such as the ISS; scientific satellites like the Hubble; Earth observation satellites from companies like Planet Labs, Umbra, and HawkEye 360; GPS; miniature CubeSats for education and research; and military/defense satellites.

Loading next visibility...
Identifier
43913, 2018-112E
Orbit
LEO
Country
Flag of CNCN / PRC
Related business
Manufacturer
DFH Shenzhen
Mission
Operational Defense Meteo Radio Occ.
Bus & Motor
YH-2, Unknown motor
Mass
~100 kg wet, ~100 kg dry
Launch date (UTC)
2018-12-29 (7 years ago)
Launch vehicle
CHANG ZHENG 2D/YZ-3
Launch site
Jiuquan Satellite Launch Center, China (JSC)
Object type
Payload
Rocket body
Debris
Shape & HBR
Box + 2 Pan, 0.5 m
Radar Cross Section
0.166 m², Large (>1 m²)

Expand to show TLE details & history
Last TLE update: 23 hours ago

TLE from 23 hours ago
0 YUNHAI 2-1E
1 43913U 18112E   26172.48733152 -.00000010  00000-0  59705-4 0  9996
2 43913  50.0052 148.4876 0005158  16.8813 343.2273 14.29011681389779
Epoch: 2026-06-21T11:41Z
TLE epoch observation values (Epoch: 2026-06-21T11:41:45.443Z)
Latitude
-0.00001°
Longitude
63.36135°
Altitude
792.025 km
Speed
7.461 km/s
True Right ascension
09h 53m 57s
True Declination
0° 00' 00"
Sunlit
Object was in daylight at epoch
Visualization orbit readout
Latitude
Unknown
Longitude
Unknown
Altitude
Unknown
Speed
Unknown
Apparent Right ascension
Unknown
Apparent Declination
Unknown
Sunlit
N/A
Visualization observer readout
Local Sidereal Time
21:40:45
Azimuth
Unknown
Elevation
Unknown
Doppler factor
Unknown
Orbital elements
Apogee altitude
799.476 km
Perigee altitude
792.075 km
Semi-major axis
7,173.912 km
Eccentricity
0.00052
Inclination
50.0052°
RAAN
148.4876°
Arg. of periapsis
16.8813°
True anomaly
343.21023°
Mean anomaly
343.2273°
Eccentric anomaly
343.21877°
Mean motion
3.57198 °/min
Orbital period
100.78 mins
BSTAR
0.000059705
Loading maneuver chart data...
Computing Atmospheric mass density...
Loading historical data...
Loading historical data...
Loading historical data...
Loading historical data...
Loading historical data...
Loading historical data...
Loading historical data...

Documentation

Showing up to 5 results
|